Memphis, TN

10:27 PM CST on December 08, 2019 (GMT -0600)
Memphis International

Weather History for KMEM - November, 2019

Change the Weather History Date:

Friday, November 15, 2019

  Actual Average Record
Temperature  
Mean Temperature 41 °F 53 °F  
Max Temperature 50 °F 63 °F 81 °F (1964)
Min Temperature 32 °F 44 °F 16 °F (1940)
Degree Days  
Heating Degree Days 24 12  
Month to date heating degree days 304 145  
Since 1 July heating degree days 451 276  
Cooling Degree Days 0 0  
Month to date cooling degree days 0 11  
Year to date cooling degree days 2479 2254  
Moisture  
Dew Point 28 °F    
Average Humidity 64    
Maximum Humidity 78    
Minimum Humidity 39    
Precipitation  
Precipitation 0.00 in 0.19 in 2.30 in (1927)
Month to date precipitation 1.37 2.47  
Year to date precipitation 66.67 44.92  
Snow  
Snow 0.00 in 0.00 in T in (2018)
Month to date snowfall T 0.0  
Since 1 July snowfall T 0.0  
Since 1 September snowfall T 0.0  
Snow Depth 0.00 in    
Sea Level Pressure  
Sea Level Pressure 30.34 in    
Wind  
Wind Speed 6 mph ()    
Max Wind Speed 18 mph    
Max Gust Speed 22 mph    
Visibility 10.0 miles    
Events      
T = Trace of Precipitation, MM = Missing Value Source: Averaged Metar Reports

Daily Weather History Graph

Daily Weather History Graph

Search for Another Location

Airport or City:

Astronomy

Nov. 15, 2019 Rise Set
Actual Time 6:34 AM CST 4:54 PM CST
Civil Twilight 6:07 AM CST 5:21 PM CST
Nautical Twilight 5:36 AM CST 5:51 PM CST
Astronomical Twilight 5:06 AM CST 6:21 PM CST
Moon 7:33 PM CST (11/15) 9:26 AM CST (11/15)
Length of Visible Light 11h 13m
Length of Day
10h 20m
Waning Gibbous, 90% of the Moon is Illuminated
Nov 15
Waning Gibbous
Nov 19
Last Quarter
Nov 26
New
Dec 4
First Quarter
Dec 11
Full

Hourly Weather History & Observations

Time (CST) Temp. Windchill Dew Point Humidity Pressure Visibility Wind Dir Wind Speed Gust Speed Precip Events Conditions
12:54 AM 37.0 °F 32.4 °F 28.9 °F 73% 30.35 in 10.0 mi ENE 5.8 mph - N/A   Clear
1:54 AM 36.0 °F 32.1 °F 28.0 °F 73% 30.35 in 10.0 mi NE 4.6 mph - N/A   Clear
2:54 AM 35.1 °F 31.0 °F 27.0 °F 72% 30.35 in 10.0 mi North 4.6 mph - N/A   Clear
3:54 AM 35.1 °F 31.0 °F 27.0 °F 72% 30.35 in 10.0 mi North 4.6 mph - N/A   Clear
4:54 AM 33.1 °F 30.0 °F 26.1 °F 75% 30.37 in 10.0 mi North 3.5 mph - N/A   Clear
5:54 AM 33.1 °F 30.0 °F 26.1 °F 75% 30.37 in 10.0 mi North 3.5 mph - N/A   Clear
6:54 AM 33.1 °F 30.0 °F 26.1 °F 75% 30.39 in 10.0 mi NNE 3.5 mph - N/A   Clear
7:54 AM 36.0 °F 31.1 °F 28.0 °F 73% 30.40 in 10.0 mi NNE 5.8 mph - N/A   Clear
8:54 AM 41.0 °F 35.8 °F 28.0 °F 60% 30.41 in 10.0 mi NNE 8.1 mph - N/A   Clear
9:54 AM 44.1 °F 37.7 °F 28.0 °F 53% 30.40 in 10.0 mi NNE 12.7 mph - N/A   Clear
10:54 AM 46.9 °F - 28.0 °F 48% 30.39 in 10.0 mi NE 12.7 mph - N/A   Clear
11:54 AM 48.0 °F - 25.0 °F 41% 30.36 in 10.0 mi North 9.2 mph - N/A   Clear
12:54 PM 50.0 °F - 26.1 °F 39% 30.33 in 10.0 mi North 11.5 mph 18.4 mph N/A   Clear
1:54 PM 50.0 °F - 27.0 °F 41% 30.32 in 10.0 mi North 12.7 mph 18.4 mph N/A   Clear
2:54 PM 48.9 °F - 26.1 °F 41% 30.32 in 10.0 mi NNW 10.4 mph - N/A   Clear
3:54 PM 48.0 °F - 27.0 °F 44% 30.32 in 10.0 mi North 9.2 mph 18.4 mph N/A   Clear
4:54 PM 43.0 °F 37.2 °F 28.9 °F 58% 30.31 in 10.0 mi North 10.4 mph - N/A   Clear
5:54 PM 39.0 °F 34.0 °F 28.9 °F 67% 30.32 in 10.0 mi North 6.9 mph - N/A   Clear
6:54 PM 39.0 °F 33.4 °F 28.9 °F 67% 30.31 in 10.0 mi North 8.1 mph - N/A   Clear
7:54 PM 37.9 °F 32.7 °F 30.0 °F 73% 30.31 in 10.0 mi North 6.9 mph - N/A   Clear
8:54 PM 36.0 °F 31.1 °F 28.9 °F 76% 30.31 in 10.0 mi North 5.8 mph - N/A   Clear
9:54 PM 35.1 °F 31.0 °F 28.9 °F 78% 30.31 in 10.0 mi North 4.6 mph - N/A   Clear
10:54 PM 36.0 °F 31.1 °F 28.9 °F 76% 30.30 in 10.0 mi NE 5.8 mph - N/A   Clear
11:54 PM 36.0 °F 29.6 °F 28.9 °F 76% 30.31 in 10.0 mi NNE 8.1 mph - N/A   Clear